contact:dominique.lefevre@mio.osupytheas.fr, maurice.libes@osupytheas.fr, didier.mallarino@osupytheas.fr
Project:EMSO http://www.emso-fr.org/EMSO-France
Depth: 2436.0 m
Title:EMSO Ligure Ouest : Data MII capteur AQUADOPP
Date,Latitude,Longitude,X_East,Y_North,Z_Up,Amplitude_X,Amplitude_Y,Amplitude_Z,Batterie,SoundSpeed,Heading,Pitch,Roll,Pressure,TIS,Speed,Direction
, degrees North, degrees East, m.s-1, m.s-1,m.s-1, 1, 1, 1, Volt, m.s-1, degree, degree, degree, dbar, degree_C, m.s-1, degree
2019-06-17T00:09:04,42.805,6.029,0.037,-0.005,-0.053,101.0,116.0,99.0,13.4,1505.2,323.9,-0.8,1.8,2470.019,13.28,0.037,97.7
2019-06-17T00:12:05,42.805,6.029,0.043,0.011,-0.022,102.0,114.0,99.0,13.4,1505.2,326.9,-0.7,1.9,2470.085,13.3,0.044,75.7
2019-06-17T00:15:06,42.805,6.029,0.038,0.006,-0.028,102.0,114.0,99.0,13.3,1505.3,326.7,-0.7,1.9,2470.059,13.31,0.038,81.0
2019-06-17T00:18:07,42.805,6.029,0.043,0.009,-0.017,104.0,116.0,98.0,13.4,1505.3,322.7,-0.7,1.8,2469.992,13.31,0.043,78.2
2019-06-17T00:21:08,42.805,6.029,0.045,0.004,-0.03,101.0,117.0,98.0,13.3,1505.3,325.1,-0.7,1.8,2470.003,13.31,0.045,84.9
2019-06-17T00:24:09,42.805,6.029,0.028,0.025,-0.014,101.0,117.0,99.0,13.4,1505.3,322.7,-0.7,1.8,2470.022,13.32,0.037,48.2
2019-06-17T00:27:10,42.805,6.029,0.042,0.015,-0.003,102.0,118.0,98.0,13.3,1505.3,326.7,-0.7,1.8,2469.969,13.32,0.044,70.4
2019-06-17T00:30:11,42.805,6.029,0.034,0.002,-0.034,101.0,116.0,99.0,13.4,1505.3,326.6,-0.7,1.9,2469.993,13.32,0.034,86.6
2019-06-17T00:33:12,42.805,6.029,0.032,-0.004,-0.04,102.0,119.0,98.0,13.4,1505.3,325.3,-0.7,1.9,2469.99,13.32,0.032,97.1
2019-06-17T00:36:13,42.805,6.029,0.047,0.024,-0.012,101.0,115.0,99.0,13.3,1505.3,325.4,-0.7,1.9,2469.974,13.32,0.052,63.0
2019-06-17T00:39:14,42.805,6.029,0.052,-0.016,-0.038,101.0,116.0,97.0,13.4,1505.3,325.6,-0.7,1.8,2469.932,13.32,0.054,107.1
2019-06-17T00:42:15,42.805,6.029,0.049,0.016,0.002,101.0,116.0,99.0,13.4,1505.3,326.3,-0.7,1.8,2469.968,13.32,0.051,71.9
2019-06-17T00:45:16,42.805,6.029,0.044,0.0,-0.02,101.0,115.0,97.0,13.4,1505.3,325.5,-0.7,1.8,2469.942,13.32,0.044,90.0
2019-06-17T00:48:17,42.805,6.029,0.042,0.027,0.002,101.0,117.0,98.0,13.4,1505.3,324.5,-0.7,1.9,2469.939,13.32,0.049,57.3
2019-06-17T00:51:18,42.805,6.029,0.067,0.016,-0.012,100.0,114.0,98.0,13.4,1505.3,323.6,-0.7,1.8,2469.914,13.32,0.068,76.6
2019-06-17T00:54:19,42.805,6.029,0.03,0.025,-0.031,102.0,114.0,99.0,13.4,1505.3,324.5,-0.8,1.8,2469.966,13.32,0.039,50.2
2019-06-17T00:57:20,42.805,6.029,0.038,0.007,-0.02,102.0,116.0,98.0,13.4,1505.3,326.5,-0.7,1.8,2469.948,13.32,0.038,79.6
2019-06-17T01:00:21,42.805,6.029,0.046,0.011,-0.05,102.0,116.0,97.0,13.4,1505.3,323.6,-0.7,1.9,2469.937,13.32,0.047,76.6
2019-06-17T01:03:22,42.805,6.029,0.038,0.008,-0.047,103.0,119.0,98.0,13.4,1505.3,326.9,-0.7,1.8,2469.979,13.32,0.038,78.1
2019-06-17T01:06:23,42.805,6.029,0.019,0.019,-0.014,101.0,116.0,99.0,13.4,1505.3,324.2,-0.7,1.9,2469.924,13.32,0.026,45.0
2019-06-17T01:09:24,42.805,6.029,0.045,-0.002,-0.016,101.0,116.0,98.0,13.4,1505.3,328.5,-0.7,1.8,2469.909,13.32,0.045,92.5
2019-06-17T01:12:25,42.805,6.029,0.065,0.006,-0.022,102.0,116.0,97.0,13.4,1505.3,322.5,-0.7,1.9,2469.957,13.32,0.065,84.7
2019-06-17T01:15:26,42.805,6.029,0.038,0.013,-0.02,102.0,116.0,97.0,13.3,1505.3,325.6,-0.7,1.9,2469.93,13.32,0.04,71.1
2019-06-17T01:18:27,42.805,6.029,0.028,0.015,-0.036,101.0,115.0,98.0,13.3,1505.3,324.8,-0.8,1.9,2469.965,13.32,0.031,61.8
2019-06-17T01:21:28,42.805,6.029,0.038,0.002,-0.018,101.0,113.0,99.0,13.4,1505.3,323.3,-0.7,1.9,2469.904,13.32,0.038,87.0
2019-06-17T01:24:29,42.805,6.029,0.06,0.005,0.013,102.0,114.0,98.0,13.3,1505.3,325.0,-0.7,1.9,2469.902,13.32,0.06,85.2
2019-06-17T01:27:30,42.805,6.029,0.045,0.012,0.017,101.0,117.0,98.0,13.4,1505.3,326.4,-0.7,1.8,2469.929,13.32,0.046,75.1
2019-06-17T01:30:31,42.805,6.029,0.052,-0.002,0.002,102.0,115.0,98.0,13.4,1505.3,324.9,-0.7,1.9,2469.932,13.32,0.052,92.2
2019-06-17T01:33:32,42.805,6.029,0.048,0.022,-0.02,102.0,116.0,99.0,13.4,1505.3,324.9,-0.7,1.8,2469.924,13.32,0.052,65.4
2019-06-17T01:36:33,42.805,6.029,0.04,-0.006,-0.002,102.0,114.0,99.0,13.4,1505.3,327.9,-0.7,1.9,2469.907,13.32,0.04,98.5
2019-06-17T01:39:34,42.805,6.029,0.043,0.02,-0.032,102.0,113.0,98.0,13.4,1505.3,323.1,-0.8,1.8,2469.884,13.32,0.047,65.1
2019-06-17T01:42:35,42.805,6.029,0.051,-0.002,-0.023,101.0,113.0,98.0,13.3,1505.3,326.0,-0.8,1.9,2469.898,13.32,0.051,92.2
2019-06-17T01:45:36,42.805,6.029,0.055,-0.002,-0.011,102.0,114.0,98.0,13.3,1505.3,326.1,-0.7,1.8,2469.919,13.32,0.055,92.1
2019-06-17T01:48:37,42.805,6.029,0.064,0.01,-0.006,102.0,114.0,98.0,13.4,1505.3,324.3,-0.8,1.9,2469.907,13.32,0.064,81.1
2019-06-17T01:51:38,42.805,6.029,0.036,0.0,-0.006,102.0,116.0,97.0,13.4,1505.3,323.2,-0.7,1.8,2469.925,13.32,0.036,90.0
2019-06-17T01:54:39,42.805,6.029,0.043,-0.004,-0.025,102.0,117.0,97.0,13.4,1505.3,325.4,-0.7,1.8,2469.904,13.32,0.043,95.3
2019-06-17T01:57:40,42.805,6.029,0.028,-0.013,-0.063,102.0,115.0,99.0,13.3,1505.3,325.1,-0.7,1.9,2469.912,13.32,0.03,114.9
2019-06-17T02:00:41,42.805,6.029,0.054,0.018,0.003,102.0,115.0,99.0,13.3,1505.3,327.2,-0.8,1.8,2469.933,13.32,0.056,71.6
2019-06-17T02:03:42,42.805,6.029,0.049,0.008,-0.002,102.0,113.0,99.0,13.3,1505.3,328.2,-0.7,1.8,2469.892,13.32,0.049,80.7
2019-06-17T02:06:43,42.805,6.029,0.061,-0.002,-0.017,101.0,116.0,98.0,13.4,1505.3,326.9,-0.7,1.9,2469.907,13.32,0.061,91.9
2019-06-17T02:09:44,42.805,6.029,0.058,0.003,-0.034,102.0,116.0,99.0,13.3,1505.3,324.5,-0.7,1.8,2469.915,13.32,0.058,87.0
2019-06-17T02:12:45,42.805,6.029,0.05,-0.003,-0.034,101.0,114.0,99.0,13.4,1505.3,323.5,-0.7,1.9,2469.913,13.32,0.05,93.4
2019-06-17T02:15:46,42.805,6.029,0.055,0.012,0.015,101.0,115.0,98.0,13.3,1505.3,324.2,-0.8,1.9,2469.916,13.32,0.056,77.7
2019-06-17T02:18:47,42.805,6.029,0.043,0.01,0.005,101.0,115.0,99.0,13.4,1505.3,324.7,-0.8,1.8,2469.903,13.32,0.044,76.9
2019-06-17T02:21:48,42.805,6.029,0.042,0.006,-0.031,101.0,114.0,98.0,13.4,1505.3,326.1,-0.7,1.8,2469.918,13.32,0.042,81.9
2019-06-17T02:24:49,42.805,6.029,0.058,0.0,0.0,101.0,114.0,99.0,13.4,1505.3,327.8,-0.7,1.9,2469.931,13.32,0.057,90.0
2019-06-17T02:27:50,42.805,6.029,0.059,0.022,-0.019,101.0,112.0,98.0,13.4,1505.3,325.4,-0.7,1.9,2469.923,13.32,0.062,69.6
2019-06-17T02:30:51,42.805,6.029,0.032,0.012,-0.014,101.0,113.0,98.0,13.3,1505.3,326.4,-0.8,1.9,2469.921,13.32,0.034,69.4
2019-06-17T02:33:52,42.805,6.029,0.048,0.012,-0.034,101.0,112.0,98.0,13.4,1505.3,323.9,-0.7,1.9,2469.909,13.32,0.049,76.0
2019-06-17T02:36:53,42.805,6.029,0.05,-0.024,-0.017,101.0,116.0,98.0,13.4,1505.3,327.1,-0.8,1.8,2469.885,13.32,0.055,115.6
2019-06-17T02:39:54,42.805,6.029,0.047,0.011,-0.024,100.0,111.0,98.0,13.4,1505.3,326.2,-0.7,1.8,2469.939,13.32,0.048,76.8
2019-06-17T02:42:55,42.805,6.029,0.055,-0.009,0.03,101.0,115.0,97.0,13.4,1505.3,326.6,-0.7,1.8,2469.933,13.32,0.055,99.3
2019-06-17T02:45:56,42.805,6.029,0.061,0.003,0.005,101.0,114.0,98.0,13.4,1505.3,324.3,-0.7,1.9,2469.899,13.32,0.061,87.2
2019-06-17T02:48:57,42.805,6.029,0.034,-0.016,-0.051,102.0,115.0,98.0,13.3,1505.3,325.8,-0.7,1.8,2469.919,13.32,0.037,115.2
2019-06-17T02:51:58,42.805,6.029,0.033,0.001,-0.018,102.0,114.0,98.0,13.4,1505.3,327.0,-0.7,1.8,2469.936,13.32,0.033,88.3
2019-06-17T02:54:59,42.805,6.029,0.054,0.004,-0.004,102.0,113.0,99.0,13.3,1505.3,326.3,-0.7,1.8,2469.932,13.32,0.054,85.8
2019-06-17T02:58:00,42.805,6.029,0.04,0.019,-0.031,101.0,117.0,98.0,13.4,1505.3,328.3,-0.7,1.8,2469.922,13.32,0.044,64.6
2019-06-17T03:01:01,42.805,6.029,0.028,0.007,-0.033,101.0,113.0,98.0,13.4,1505.3,327.7,-0.7,1.8,2469.913,13.32,0.028,76.0
2019-06-17T03:04:02,42.805,6.029,0.032,0.003,-0.029,102.0,113.0,98.0,13.4,1505.3,323.6,-0.7,1.8,2469.883,13.32,0.032,84.6
2019-06-17T03:07:03,42.805,6.029,0.038,0.002,-0.013,101.0,113.0,98.0,13.3,1505.3,326.5,-0.7,1.8,2469.965,13.32,0.038,87.0
2019-06-17T03:10:04,42.805,6.029,0.032,0.02,-0.034,101.0,114.0,99.0,13.4,1505.3,326.1,-0.7,1.8,2469.955,13.32,0.037,58.0
2019-06-17T03:13:05,42.805,6.029,0.04,-0.004,-0.034,101.0,113.0,99.0,13.4,1505.3,324.3,-0.7,1.8,2469.921,13.32,0.04,95.7
2019-06-17T03:16:06,42.805,6.029,0.033,-0.002,-0.014,102.0,115.0,98.0,13.4,1505.3,327.6,-0.7,1.8,2469.957,13.32,0.033,93.5
2019-06-17T03:19:07,42.805,6.029,0.042,0.006,-0.022,101.0,113.0,98.0,13.4,1505.3,326.2,-0.7,1.8,2469.913,13.32,0.042,81.9
2019-06-17T03:22:08,42.805,6.029,0.055,-0.003,-0.027,101.0,111.0,100.0,13.4,1505.3,323.9,-0.7,1.9,2469.939,13.32,0.055,93.1
2019-06-17T03:25:09,42.805,6.029,0.036,-0.015,-0.016,102.0,113.0,98.0,13.4,1505.3,324.8,-0.7,1.9,2469.959,13.32,0.039,112.6
2019-06-17T03:28:10,42.805,6.029,0.049,0.012,-0.009,101.0,113.0,98.0,13.4,1505.3,326.6,-0.7,1.9,2469.943,13.32,0.05,76.2
2019-06-17T03:31:11,42.805,6.029,0.037,0.002,-0.048,101.0,117.0,98.0,13.4,1505.3,325.0,-0.7,1.8,2469.977,13.32,0.037,86.9
2019-06-17T03:34:12,42.805,6.029,0.034,0.001,-0.018,101.0,113.0,98.0,13.4,1505.3,326.2,-0.7,1.8,2469.965,13.32,0.034,88.3
2019-06-17T03:37:13,42.805,6.029,0.054,0.0,-0.018,102.0,114.0,99.0,13.4,1505.3,325.7,-0.7,1.9,2469.98,13.32,0.053,90.0
2019-06-17T03:40:14,42.805,6.029,0.048,-0.007,-0.029,103.0,115.0,98.0,13.4,1505.3,326.3,-0.7,1.9,2469.944,13.32,0.048,98.3
2019-06-17T03:43:15,42.805,6.029,0.049,-0.004,-0.016,101.0,113.0,99.0,13.4,1505.3,325.4,-0.7,1.8,2469.971,13.32,0.049,94.7
2019-06-17T03:46:16,42.805,6.029,0.061,0.006,-0.019,102.0,114.0,98.0,13.4,1505.3,324.8,-0.7,1.8,2469.973,13.32,0.061,84.4
2019-06-17T03:49:17,42.805,6.029,0.057,-0.006,-0.031,102.0,111.0,98.0,13.4,1505.3,327.1,-0.8,1.8,2469.96,13.32,0.057,96.0
2019-06-17T03:52:18,42.805,6.029,0.035,0.003,-0.01,102.0,111.0,99.0,13.4,1505.3,324.0,-0.7,1.8,2469.955,13.32,0.035,85.1
2019-06-17T03:55:19,42.805,6.029,0.056,-0.002,-0.015,102.0,115.0,99.0,13.3,1505.3,326.5,-0.7,1.8,2469.983,13.32,0.056,92.0
2019-06-17T03:58:20,42.805,6.029,0.04,0.002,-0.02,102.0,108.0,99.0,13.4,1505.3,324.8,-0.7,1.9,2469.958,13.32,0.04,87.1
2019-06-17T04:01:21,42.805,6.029,0.055,-0.012,-0.01,101.0,113.0,98.0,13.3,1505.3,328.2,-0.7,1.9,2469.946,13.32,0.056,102.3
2019-06-17T04:04:22,42.805,6.029,0.042,-0.006,-0.013,101.0,114.0,99.0,13.3,1505.3,326.4,-0.8,1.8,2469.992,13.32,0.042,98.1
2019-06-17T04:07:23,42.805,6.029,0.067,-0.026,-0.019,101.0,111.0,98.0,13.4,1505.3,325.8,-0.8,1.8,2470.018,13.32,0.071,111.2
2019-06-17T04:10:24,42.805,6.029,0.03,-0.015,-0.017,100.0,113.0,99.0,13.4,1505.3,322.8,-0.7,1.8,2469.972,13.32,0.033,116.6
2019-06-17T04:13:25,42.805,6.029,0.068,-0.002,0.0,102.0,112.0,99.0,13.3,1505.3,324.9,-0.8,1.8,2469.958,13.32,0.068,91.7
2019-06-17T04:16:26,42.805,6.029,0.063,-0.009,-0.015,102.0,113.0,99.0,13.3,1505.3,326.2,-0.7,1.9,2469.931,13.32,0.063,98.1
2019-06-17T04:19:27,42.805,6.029,0.049,-0.017,-0.04,102.0,110.0,99.0,13.4,1505.3,322.9,-0.7,1.9,2469.958,13.32,0.051,109.1
2019-06-17T04:22:28,42.805,6.029,0.049,-0.007,-0.033,101.0,112.0,98.0,13.3,1505.3,325.9,-0.7,1.9,2469.982,13.32,0.049,98.1
2019-06-17T04:25:29,42.805,6.029,0.077,-0.009,0.001,101.0,111.0,98.0,13.4,1505.3,325.4,-0.8,1.9,2469.995,13.32,0.077,96.7
2019-06-17T04:28:30,42.805,6.029,0.039,-0.014,-0.008,102.0,113.0,99.0,13.3,1505.3,326.8,-0.7,1.9,2470.013,13.32,0.041,109.7
2019-06-17T04:31:31,42.805,6.029,0.048,0.003,-0.012,101.0,112.0,98.0,13.3,1505.3,326.3,-0.7,1.8,2469.996,13.32,0.048,86.4
2019-06-17T04:34:32,42.805,6.029,0.061,-0.016,-0.043,100.0,110.0,100.0,13.4,1505.3,325.0,-0.7,1.8,2470.005,13.32,0.063,104.7
2019-06-17T04:37:33,42.805,6.029,0.051,0.008,-0.031,102.0,110.0,98.0,13.4,1505.3,322.6,-0.7,1.8,2469.98,13.32,0.051,81.1
2019-06-17T04:40:34,42.805,6.029,0.053,0.01,-0.003,103.0,108.0,98.0,13.3,1505.3,325.0,-0.7,1.8,2469.999,13.32,0.053,79.3
2019-06-17T04:43:35,42.805,6.029,0.069,0.004,-0.018,102.0,111.0,97.0,13.3,1505.3,326.5,-0.7,1.8,2470.02,13.32,0.069,86.7
2019-06-17T04:46:36,42.805,6.029,0.049,-0.008,-0.028,102.0,111.0,98.0,13.3,1505.3,327.4,-0.7,1.8,2470.025,13.32,0.049,99.3
2019-06-17T04:49:37,42.805,6.029,0.043,0.0,0.0,100.0,110.0,99.0,13.4,1505.3,325.2,-0.7,1.8,2470.004,13.32,0.043,90.0
2019-06-17T04:52:38,42.805,6.029,0.046,0.0,-0.01,101.0,107.0,98.0,13.4,1505.3,327.1,-0.7,1.9,2470.062,13.32,0.046,90.0
2019-06-17T04:55:39,42.805,6.029,0.02,-0.004,-0.007,100.0,112.0,98.0,13.4,1505.3,325.4,-0.7,1.8,2470.011,13.32,0.02,101.3
2019-06-17T04:58:40,42.805,6.029,0.067,0.004,-0.016,102.0,109.0,98.0,13.4,1505.3,325.4,-0.7,1.9,2470.028,13.32,0.067,86.6
2019-06-17T05:01:41,42.805,6.029,0.072,-0.029,-0.016,102.0,108.0,99.0,13.4,1505.3,325.9,-0.7,1.8,2470.019,13.32,0.077,111.9
2019-06-17T05:04:42,42.805,6.029,0.051,-0.014,-0.035,101.0,109.0,99.0,13.4,1505.3,326.0,-0.8,1.8,2470.017,13.32,0.052,105.3
2019-06-17T05:07:43,42.805,6.029,0.02,0.006,-0.018,102.0,113.0,99.0,13.4,1505.3,324.4,-0.7,1.8,2470.062,13.32,0.02,73.3
2019-06-17T05:10:44,42.805,6.029,0.03,-0.006,-0.029,102.0,112.0,99.0,13.4,1505.3,322.7,-0.7,1.8,2470.031,13.32,0.03,101.3
2019-06-17T05:13:45,42.805,6.029,0.043,0.0,-0.004,101.0,110.0,98.0,13.3,1505.3,322.9,-0.7,1.8,2470.056,13.32,0.043,90.0
2019-06-17T05:16:46,42.805,6.029,0.035,-0.005,-0.011,102.0,113.0,99.0,13.4,1505.3,327.1,-0.8,1.8,2470.018,13.32,0.035,98.1
2019-06-17T05:19:47,42.805,6.029,0.051,-0.019,0.008,103.0,111.0,99.0,13.4,1505.3,324.0,-0.7,1.8,2470.052,13.32,0.054,110.4
2019-06-17T05:22:48,42.805,6.029,0.044,-0.01,-0.04,101.0,110.0,98.0,13.4,1505.3,326.9,-0.7,1.8,2470.042,13.32,0.045,102.8
2019-06-17T05:25:49,42.805,6.029,0.04,-0.006,-0.004,102.0,114.0,100.0,13.4,1505.3,326.8,-0.8,1.8,2469.991,13.32,0.04,98.5
2019-06-17T05:28:50,42.805,6.029,0.046,0.007,-0.035,102.0,113.0,98.0,13.4,1505.3,325.8,-0.7,1.8,2470.032,13.32,0.046,81.3
2019-06-17T05:31:51,42.805,6.029,0.033,0.0,-0.061,100.0,113.0,100.0,13.4,1505.3,328.1,-0.7,1.8,2470.038,13.32,0.033,90.0
2019-06-17T05:34:52,42.805,6.029,0.038,0.01,-0.03,101.0,112.0,100.0,13.3,1505.3,323.8,-0.8,1.9,2470.042,13.32,0.039,75.3
2019-06-17T05:37:53,42.805,6.029,0.047,0.02,0.004,101.0,110.0,99.0,13.3,1505.3,326.5,-0.7,1.9,2470.049,13.32,0.051,67.0
2019-06-17T05:40:54,42.805,6.029,0.042,0.014,0.015,102.0,111.0,98.0,13.4,1505.3,324.3,-0.8,1.9,2470.045,13.32,0.044,71.6
2019-06-17T05:43:55,42.805,6.029,0.039,-0.02,-0.059,102.0,111.0,98.0,13.3,1505.3,323.8,-0.7,1.8,2469.994,13.32,0.043,117.1
2019-06-17T05:46:56,42.805,6.029,0.035,-0.012,-0.018,101.0,111.0,98.0,13.3,1505.3,326.5,-0.7,1.9,2470.101,13.32,0.037,108.9
2019-06-17T05:49:57,42.805,6.029,0.043,-0.004,0.007,102.0,110.0,99.0,13.4,1505.3,325.6,-0.7,1.8,2470.059,13.32,0.043,95.3
2019-06-17T05:52:58,42.805,6.029,0.028,-0.009,-0.013,101.0,111.0,99.0,13.4,1505.3,325.6,-0.7,1.9,2470.066,13.32,0.029,107.8
2019-06-17T05:55:59,42.805,6.029,0.054,-0.017,0.001,102.0,114.0,98.0,13.3,1505.3,326.1,-0.7,1.8,2470.089,13.32,0.056,107.5
2019-06-17T05:59:00,42.805,6.029,0.046,0.007,-0.012,102.0,108.0,97.0,13.4,1505.3,326.7,-0.7,1.8,2470.039,13.32,0.046,81.3
2019-06-17T06:02:01,42.805,6.029,0.049,0.01,-0.005,102.0,115.0,99.0,13.4,1505.3,324.6,-0.7,1.8,2470.079,13.32,0.05,78.5
2019-06-17T06:05:02,42.805,6.029,0.054,0.014,0.022,102.0,111.0,100.0,13.4,1505.3,326.1,-0.7,1.8,2470.049,13.32,0.055,75.5
2019-06-17T06:08:03,42.805,6.029,0.051,-0.004,-0.008,101.0,111.0,99.0,13.4,1505.3,324.3,-0.7,1.8,2470.071,13.32,0.051,94.5
2019-06-17T06:11:04,42.805,6.029,0.072,-0.013,-0.024,102.0,111.0,99.0,13.4,1505.3,326.0,-0.7,1.8,2470.08,13.32,0.073,100.2
2019-06-17T06:14:05,42.805,6.029,0.047,0.005,-0.015,103.0,111.0,98.0,13.4,1505.3,325.0,-0.7,1.8,2470.066,13.32,0.047,83.9
2019-06-17T06:17:06,42.805,6.029,0.059,-0.01,0.0,102.0,110.0,98.0,13.4,1505.3,324.5,-0.7,1.9,2470.061,13.32,0.059,99.6
2019-06-17T06:20:07,42.805,6.029,0.044,-0.002,0.027,101.0,109.0,99.0,13.3,1505.3,328.0,-0.8,1.8,2470.05,13.32,0.044,92.6
2019-06-17T06:23:08,42.805,6.029,0.062,-0.012,-0.015,104.0,108.0,100.0,13.4,1505.3,326.9,-0.7,1.8,2470.032,13.32,0.063,101.0
2019-06-17T06:26:09,42.805,6.029,0.03,0.001,0.019,102.0,109.0,99.0,13.4,1505.3,324.6,-0.7,1.9,2470.06,13.32,0.03,88.1
2019-06-17T06:29:10,42.805,6.029,0.028,-0.004,-0.043,102.0,113.0,99.0,13.4,1505.3,324.0,-0.7,1.8,2470.096,13.32,0.028,98.1
2019-06-17T06:32:11,42.805,6.029,0.048,-0.01,-0.002,101.0,112.0,99.0,13.4,1505.3,324.7,-0.7,1.8,2470.077,13.32,0.049,101.8
2019-06-17T06:35:12,42.805,6.029,0.054,0.014,0.0,101.0,110.0,99.0,13.4,1505.3,325.5,-0.7,1.8,2470.044,13.32,0.055,75.5
2019-06-17T06:38:13,42.805,6.029,0.052,0.003,0.003,102.0,110.0,98.0,13.4,1505.3,324.1,-0.7,1.8,2470.068,13.32,0.052,86.7
2019-06-17T06:41:14,42.805,6.029,0.044,-0.021,0.015,103.0,112.0,98.0,13.4,1505.3,325.2,-0.7,1.9,2470.093,13.32,0.048,115.5
2019-06-17T06:44:15,42.805,6.029,0.043,0.005,-0.022,104.0,113.0,99.0,13.4,1505.3,324.8,-0.7,1.9,2470.09,13.32,0.043,83.4
2019-06-17T06:47:16,42.805,6.029,0.077,-0.024,-0.017,103.0,109.0,97.0,13.4,1505.3,327.3,-0.7,1.8,2470.072,13.32,0.08,107.3
2019-06-17T06:50:17,42.805,6.029,0.047,-0.008,-0.005,102.0,109.0,99.0,13.4,1505.3,325.9,-0.7,1.8,2470.017,13.32,0.047,99.7
2019-06-17T06:53:18,42.805,6.029,0.045,0.001,0.0,102.0,115.0,99.0,13.3,1505.3,325.3,-0.7,1.8,2470.081,13.32,0.045,88.7
2019-06-17T06:56:19,42.805,6.029,0.045,-0.005,-0.015,101.0,112.0,99.0,13.4,1505.3,327.5,-0.7,1.8,2470.05,13.32,0.045,96.3
2019-06-17T06:59:20,42.805,6.029,0.064,-0.008,0.006,103.0,115.0,99.0,13.4,1505.3,326.4,-0.7,1.8,2470.061,13.32,0.064,97.1
2019-06-17T07:02:21,42.805,6.029,0.051,-0.014,-0.058,103.0,114.0,98.0,13.4,1505.3,324.6,-0.7,1.8,2470.057,13.32,0.052,105.3
2019-06-17T07:05:22,42.805,6.029,0.053,-0.02,-0.028,102.0,113.0,99.0,13.3,1505.3,327.3,-0.7,1.9,2470.039,13.32,0.056,110.7
2019-06-17T07:08:23,42.805,6.029,0.038,0.0,-0.023,102.0,110.0,100.0,13.4,1505.3,325.8,-0.7,1.9,2470.079,13.32,0.038,90.0
2019-06-17T07:11:24,42.805,6.029,0.029,0.009,-0.024,103.0,109.0,100.0,13.4,1505.3,323.2,-0.8,1.8,2470.05,13.32,0.03,72.8
2019-06-17T07:14:25,42.805,6.029,0.065,-0.003,0.011,102.0,108.0,98.0,13.4,1505.3,326.0,-0.8,1.8,2470.066,13.32,0.065,92.6
2019-06-17T07:17:26,42.805,6.029,0.051,-0.01,-0.012,101.0,110.0,99.0,13.3,1505.3,327.3,-0.7,1.8,2470.044,13.32,0.051,101.1
2019-06-17T07:20:27,42.805,6.029,0.042,-0.009,-0.025,103.0,110.0,99.0,13.4,1505.3,325.6,-0.7,1.9,2470.07,13.32,0.042,102.1
2019-06-17T07:23:28,42.805,6.029,0.048,0.012,-0.014,103.0,109.0,100.0,13.4,1505.3,323.3,-0.8,1.9,2470.093,13.32,0.049,76.0
2019-06-17T07:26:29,42.805,6.029,0.054,0.008,-0.005,102.0,110.0,98.0,13.4,1505.3,326.1,-0.8,1.9,2470.043,13.32,0.054,81.6
2019-06-17T07:29:30,42.805,6.029,0.054,0.012,0.019,103.0,109.0,99.0,13.4,1505.3,327.4,-0.8,1.8,2470.06,13.32,0.055,77.5
2019-06-17T07:32:31,42.805,6.029,0.053,-0.001,-0.016,102.0,107.0,100.0,13.3,1505.3,323.6,-0.7,1.8,2470.056,13.32,0.053,91.1
2019-06-17T07:35:32,42.805,6.029,0.039,-0.001,-0.002,103.0,110.0,98.0,13.3,1505.3,324.2,-0.7,1.8,2470.013,13.32,0.039,91.5
2019-06-17T07:38:33,42.805,6.029,0.057,-0.015,-0.011,104.0,110.0,99.0,13.3,1505.3,325.4,-0.7,1.9,2470.035,13.32,0.058,104.7
2019-06-17T07:41:34,42.805,6.029,0.055,0.002,-0.024,103.0,112.0,98.0,13.4,1505.3,324.1,-0.7,1.9,2470.019,13.32,0.055,87.9
2019-06-17T07:44:35,42.805,6.029,0.029,0.003,-0.007,102.0,106.0,99.0,13.4,1505.3,326.4,-0.7,1.9,2470.055,13.32,0.029,84.1
2019-06-17T07:47:36,42.805,6.029,0.038,-0.019,-0.018,103.0,110.0,99.0,13.4,1505.3,325.4,-0.7,1.9,2470.047,13.32,0.042,116.6
2019-06-17T07:50:37,42.805,6.029,0.08,-0.003,-0.044,102.0,108.0,99.0,13.4,1505.3,322.7,-0.7,1.9,2470.064,13.32,0.08,92.1
2019-06-17T07:53:38,42.805,6.029,0.026,-0.016,-0.031,104.0,110.0,100.0,13.3,1505.3,325.3,-0.8,1.9,2470.035,13.32,0.03,121.6
2019-06-17T07:56:39,42.805,6.029,0.063,0.003,-0.005,103.0,110.0,99.0,13.4,1505.3,325.2,-0.8,1.8,2470.021,13.32,0.063,87.3
2019-06-17T07:59:40,42.805,6.029,0.046,-0.021,-0.018,102.0,109.0,99.0,13.4,1505.3,325.2,-0.7,1.8,2470.023,13.32,0.05,114.5
2019-06-17T08:02:41,42.805,6.029,0.053,0.002,-0.017,102.0,109.0,100.0,13.4,1505.3,324.2,-0.7,1.8,2470.056,13.32,0.053,87.8
2019-06-17T08:05:42,42.805,6.029,0.064,-0.012,-0.01,103.0,108.0,99.0,13.3,1505.3,328.2,-0.7,1.8,2470.023,13.32,0.065,100.6
2019-06-17T08:08:43,42.805,6.029,0.046,-0.019,-0.014,103.0,109.0,98.0,13.4,1505.3,325.8,-0.7,1.8,2470.022,13.32,0.049,112.4
2019-06-17T08:11:44,42.805,6.029,0.043,0.012,-0.025,104.0,112.0,98.0,13.4,1505.3,325.4,-0.7,1.8,2469.987,13.32,0.044,74.4
2019-06-17T08:14:45,42.805,6.029,0.056,0.007,0.0,101.0,108.0,98.0,13.4,1505.3,326.1,-0.7,1.8,2470.032,13.32,0.056,82.9
2019-06-17T08:17:46,42.805,6.029,0.049,-0.001,0.005,103.0,109.0,100.0,13.4,1505.3,324.7,-0.7,1.9,2470.068,13.32,0.049,91.2
2019-06-17T08:20:47,42.805,6.029,0.042,-0.01,0.021,103.0,108.0,99.0,13.4,1505.3,323.2,-0.7,1.8,2469.974,13.32,0.043,103.4
2019-06-17T08:23:48,42.805,6.029,0.064,-0.005,-0.021,102.0,107.0,98.0,13.4,1505.3,324.6,-0.7,1.9,2470.039,13.32,0.064,94.5
2019-06-17T08:26:49,42.805,6.029,0.048,-0.001,-0.004,102.0,109.0,99.0,13.3,1505.3,322.6,-0.7,1.8,2469.989,13.32,0.048,91.2
2019-06-17T08:29:50,42.805,6.029,0.035,-0.007,-0.003,103.0,109.0,99.0,13.3,1505.3,326.1,-0.7,1.8,2470.038,13.32,0.035,101.3
2019-06-17T08:32:51,42.805,6.029,0.055,-0.027,-0.017,103.0,107.0,99.0,13.4,1505.3,325.8,-0.7,1.8,2470.052,13.32,0.061,116.1
2019-06-17T08:35:52,42.805,6.029,0.038,0.007,-0.01,102.0,106.0,99.0,13.3,1505.3,324.7,-0.7,1.8,2470.022,13.32,0.038,79.6
2019-06-17T08:38:53,42.805,6.029,0.043,-0.002,-0.008,102.0,106.0,99.0,13.4,1505.3,326.9,-0.8,1.9,2470.038,13.32,0.043,92.7
2019-06-17T08:41:54,42.805,6.029,0.043,-0.012,-0.02,102.0,111.0,99.0,13.3,1505.3,327.2,-0.8,1.8,2470.019,13.32,0.044,105.6
2019-06-17T08:44:55,42.805,6.029,0.061,0.003,0.006,101.0,111.0,99.0,13.3,1505.3,326.3,-0.7,1.9,2470.023,13.32,0.061,87.2
2019-06-17T08:47:56,42.805,6.029,0.059,-0.004,0.0,102.0,106.0,99.0,13.4,1505.3,326.0,-0.7,1.8,2470.03,13.32,0.059,93.9
2019-06-17T08:50:57,42.805,6.029,0.042,-0.005,-0.023,102.0,106.0,99.0,13.3,1505.3,327.5,-0.7,1.8,2469.989,13.32,0.042,96.8
2019-06-17T08:53:58,42.805,6.029,0.045,0.0,-0.029,102.0,105.0,99.0,13.4,1505.3,323.8,-0.7,1.9,2469.969,13.32,0.045,90.0
2019-06-17T08:56:59,42.805,6.029,0.047,-0.006,0.021,104.0,106.0,99.0,13.3,1505.3,326.2,-0.7,1.9,2469.984,13.32,0.047,97.3
2019-06-17T09:00:00,42.805,6.029,0.035,0.003,-0.022,103.0,109.0,99.0,13.4,1505.3,326.6,-0.7,1.8,2470.04,13.32,0.035,85.1
2019-06-17T09:03:01,42.805,6.029,0.051,-0.017,-0.013,102.0,105.0,98.0,13.4,1505.3,328.2,-0.7,1.8,2470.014,13.32,0.053,108.4
2019-06-17T09:06:02,42.805,6.029,0.067,-0.012,0.002,104.0,109.0,98.0,13.4,1505.3,325.3,-0.7,1.9,2469.955,13.32,0.068,100.2
2019-06-17T09:09:03,42.805,6.029,0.037,0.003,-0.031,103.0,111.0,99.0,13.4,1505.3,326.2,-0.8,1.8,2469.969,13.32,0.037,85.4
2019-06-17T09:12:04,42.805,6.029,0.082,-0.006,0.002,102.0,110.0,98.0,13.4,1505.3,325.3,-0.7,1.9,2470.018,13.32,0.082,94.2
2019-06-17T09:15:05,42.805,6.029,0.051,-0.017,-0.002,102.0,105.0,98.0,13.3,1505.3,327.6,-0.7,1.8,2469.997,13.32,0.053,108.4
2019-06-17T09:18:06,42.805,6.029,0.039,-0.03,-0.037,103.0,111.0,100.0,13.3,1505.3,324.2,-0.7,1.8,2470.003,13.32,0.049,127.6
2019-06-17T09:21:07,42.805,6.029,0.053,0.002,-0.033,101.0,109.0,98.0,13.3,1505.3,325.6,-0.8,1.8,2470.026,13.32,0.053,87.8
2019-06-17T09:24:08,42.805,6.029,0.026,0.0,-0.019,103.0,110.0,99.0,13.4,1505.3,325.7,-0.7,1.8,2470.002,13.32,0.026,90.0
2019-06-17T09:27:09,42.805,6.029,0.044,0.0,-0.012,103.0,107.0,100.0,13.4,1505.3,326.3,-0.7,1.8,2470.02,13.32,0.044,90.0
2019-06-17T09:30:10,42.805,6.029,0.05,-0.006,-0.022,101.0,109.0,100.0,13.4,1505.3,323.3,-0.8,1.9,2470.009,13.32,0.05,96.8
2019-06-17T09:33:11,42.805,6.029,0.033,0.011,-0.002,102.0,110.0,98.0,13.4,1505.3,326.5,-0.8,1.8,2469.971,13.32,0.034,71.6
2019-06-17T09:36:12,42.805,6.029,0.055,-0.019,-0.006,102.0,108.0,98.0,13.4,1505.3,326.9,-0.7,1.8,2469.986,13.32,0.058,109.1
2019-06-17T09:39:13,42.805,6.029,0.052,-0.007,-0.028,102.0,107.0,100.0,13.4,1505.3,326.3,-0.7,1.8,2470.005,13.32,0.052,97.7
2019-06-17T09:42:14,42.805,6.029,0.052,0.004,-0.032,103.0,106.0,99.0,13.3,1505.3,324.1,-0.7,1.8,2469.947,13.32,0.052,85.6
2019-06-17T09:45:15,42.805,6.029,0.063,0.002,-0.019,103.0,110.0,98.0,13.3,1505.3,328.4,-0.7,1.9,2470.014,13.32,0.063,88.2